Weather History for KFLD - January, 2014

Change the Weather History Date:

Wednesday, January 22, 2014

  Actual Average Record
Temperature  
Mean Temperature 4 °F -  
Max Temperature 9 °F 30 °F 51 °F (1964)
Min Temperature -2 °F 14 °F -19 °F (1963)
Degree Days  
Heating Degree Days 62    
Moisture  
Dew Point -4 °F    
Average Humidity 70    
Maximum Humidity 80    
Minimum Humidity 60    
Precipitation  
Precipitation 0.00 in - - ()
Sea Level Pressure  
Sea Level Pressure 29.95 in    
Wind  
Wind Speed 11 mph (West)    
Max Wind Speed 22 mph    
Max Gust Speed 29 mph    
Visibility 4 miles    
Events Snow    
Averages and records for this station are not official NWS values.
T = Trace of Precipitation, MM = Missing Value Source: NWS Daily Summary

Daily Weather History Graph

Daily Weather History Graph

Search for Another Location

Airport or City:

Trip Planner

Search our weather history database for the weather conditions in past years. The results will help you decide how hot, cold, wet, or windy it might be!

Date:

Astronomy

Jan. 22, 2014 Rise Set
Actual Time 7:20 AM CST 4:51 PM CST
Civil Twilight 6:48 AM CST 5:22 PM CST
Nautical Twilight 6:13 AM CST 5:57 PM CST
Astronomical Twilight 5:39 AM CST 6:32 PM CST
Moon 11:38 PM CST (1/22) 10:07 AM CST (1/22)
Length of Visible Light 10h 33m
Length of Day
9h 31m
Waning Gibbous, 65% of the Moon is Illuminated
Jan 22
Waning Gibbous
Jan 23
Last Quarter
Jan 30
New
Feb 6
First Quarter
Feb 14
Full

Hourly Weather History & Observations

Time (CST) Temp. Windchill Dew Point Humidity Pressure Visibility Wind Dir Wind Speed Gust Speed Precip Events Conditions
12:53 AM -0.9 °F -12.7 °F -9.9 °F 66% 30.14 in 10.0 mi SSE 5.8 mph - N/A   Overcast
1:53 AM -0.0 °F -15.3 °F -9.0 °F 66% 30.11 in 10.0 mi SSE 9.2 mph - N/A   Overcast
2:53 AM 1.0 °F -11.7 °F -8.0 °F 66% 30.09 in 10.0 mi South 6.9 mph - N/A   Overcast
3:53 AM 3.0 °F -9.3 °F -8.0 °F 60% 30.06 in 10.0 mi SSW 6.9 mph - N/A   Overcast
4:53 AM 1.9 °F -13.8 °F -7.1 °F 66% 30.02 in 4.0 mi South 10.4 mph - 0.00 in Snow Light Snow
5:53 AM 1.9 °F -12.9 °F -4.0 °F 76% 30.00 in 3.0 mi SSW 9.2 mph - 0.00 in Snow Light Snow
6:16 AM 1.9 °F -11.8 °F -4.0 °F 76% 29.94 in 2.5 mi South 8.1 mph - 0.00 in Snow Light Snow
6:33 AM 1.9 °F -11.8 °F -4.0 °F 76% 29.93 in 2.5 mi South 8.1 mph - 0.00 in Snow Light Snow
6:53 AM 3.0 °F -12.5 °F -2.9 °F 76% 29.99 in 2.0 mi SSW 10.4 mph - 0.00 in Snow Light Snow
7:19 AM 1.9 °F -13.8 °F -2.9 °F 80% 29.92 in 3.0 mi SSW 10.4 mph - 0.00 in Snow Light Snow
7:31 AM 1.9 °F -13.8 °F -2.9 °F 80% 29.91 in 2.0 mi SSW 10.4 mph - 0.00 in Snow Light Snow
7:53 AM 1.9 °F -13.8 °F -2.9 °F 80% 29.98 in 2.0 mi SSW 10.4 mph - 0.00 in Snow Light Snow
8:04 AM 1.9 °F -13.8 °F -2.9 °F 80% 29.91 in 1.5 mi SSW 10.4 mph - 0.00 in Snow Light Snow
8:20 AM 1.9 °F -14.7 °F -2.9 °F 80% 29.90 in 2.0 mi SW 11.5 mph - 0.00 in Snow Light Snow
8:37 AM 3.0 °F -13.3 °F -2.9 °F 76% 29.89 in 4.0 mi SW 11.5 mph - 0.00 in Snow Light Snow
8:53 AM 3.0 °F -10.5 °F -2.9 °F 76% 29.96 in 3.0 mi SW 8.1 mph - 0.00 in Snow Light Snow
9:53 AM 5.0 °F -10.0 °F -2.0 °F 73% 29.95 in 4.0 mi SW 10.4 mph - 0.00 in Snow Light Snow
10:53 AM 6.1 °F -9.5 °F -0.9 °F 73% 29.94 in 4.0 mi WSW 11.5 mph - 0.00 in Snow Light Snow
11:25 AM 7.0 °F -6.6 °F -0.0 °F 73% 29.86 in 2.0 mi WSW 9.2 mph - 0.00 in Snow Light Snow
11:35 AM 7.0 °F -4.5 °F -0.0 °F 73% 29.86 in 3.0 mi West 6.9 mph - 0.00 in Snow Light Snow
11:53 AM 7.0 °F -5.7 °F -0.0 °F 73% 29.91 in 4.0 mi WSW 8.1 mph - 0.00 in Snow Light Snow
12:04 PM 8.1 °F -4.3 °F -0.0 °F 70% 29.84 in 1.8 mi West 8.1 mph - 0.00 in Snow Light Snow
12:11 PM 8.1 °F -7.0 °F -0.0 °F 70% 29.84 in 1.0 mi West 11.5 mph - 0.00 in Snow Light Snow
12:21 PM 8.1 °F -5.3 °F 1.0 °F 73% 29.84 in 2.0 mi West 9.2 mph - 0.00 in Snow Light Snow
12:48 PM 8.6 °F -4.7 °F -0.4 °F 67% 29.84 in 3.0 mi West 9.2 mph - 0.00 in Snow Light Snow
12:53 PM 9.0 °F -5.9 °F -0.0 °F 67% 29.90 in 3.0 mi WNW 11.5 mph - 0.00 in Snow Light Snow
1:12 PM 9.0 °F -7.3 °F 1.0 °F 70% 29.84 in 1.5 mi WNW 13.8 mph - 0.00 in Snow Light Snow
1:29 PM 9.0 °F -9.0 °F -0.0 °F 67% 29.83 in 3.0 mi WNW 17.3 mph - 0.00 in Snow Light Snow
1:37 PM 9.0 °F -7.3 °F -0.9 °F 64% 29.83 in 5.0 mi NW 13.8 mph - 0.00 in Snow Light Snow
1:50 PM 8.6 °F -8.3 °F 1.4 °F 73% 29.84 in 2.0 mi WNW 15.0 mph 24.2 mph 0.00 in Snow Light Snow
1:53 PM 8.1 °F -10.7 °F 1.0 °F 73% 29.90 in 1.5 mi NW 18.4 mph 24.2 mph 0.00 in Snow Light Snow
2:10 PM 7.0 °F -10.4 °F -0.9 °F 70% 29.85 in 2.0 mi NW 15.0 mph 28.8 mph 0.00 in Snow Light Snow
2:25 PM 7.0 °F -12.6 °F -2.0 °F 67% 29.86 in 2.0 mi NW 19.6 mph - 0.00 in Snow Light Snow
2:36 PM 7.0 °F -13.6 °F -2.0 °F 67% 29.86 in 3.0 mi NW 21.9 mph - 0.00 in   Overcast
2:43 PM 7.0 °F -11.6 °F -0.9 °F 70% 29.87 in 2.0 mi NW 17.3 mph - 0.00 in Snow Light Snow
2:53 PM 6.1 °F -14.3 °F -2.0 °F 69% 29.94 in 2.0 mi NW 20.7 mph - 0.00 in   Overcast
3:06 PM 6.1 °F -14.8 °F -2.0 °F 69% 29.88 in 4.0 mi NW 21.9 mph 25.3 mph 0.00 in Snow Blowing Snow
3:27 PM 6.1 °F -12.2 °F -2.0 °F 69% 29.90 in 2.5 mi NW 16.1 mph 21.9 mph 0.00 in Snow Light Snow
3:44 PM 6.1 °F -14.3 °F -2.9 °F 67% 29.91 in 3.0 mi WNW 20.7 mph - 0.00 in Snow Light Snow
3:53 PM 6.1 °F -12.2 °F -2.9 °F 67% 29.99 in 5.0 mi NW 16.1 mph - 0.00 in   Overcast
4:06 PM 5.0 °F -14.2 °F -5.1 °F 63% 29.93 in 7.0 mi NW 17.3 mph 27.6 mph 0.00 in   Mostly Cloudy
4:53 PM 3.0 °F -12.5 °F -7.1 °F 63% 30.02 in 10.0 mi NW 10.4 mph - 0.00 in   Clear
5:53 PM 3.0 °F -16.1 °F -7.1 °F 63% 30.06 in 10.0 mi NW 16.1 mph - N/A   Mostly Cloudy
6:53 PM 1.0 °F -17.3 °F -8.0 °F 66% 30.09 in 10.0 mi NW 13.8 mph - N/A   Clear
7:53 PM -0.0 °F -20.1 °F -11.0 °F 60% 30.12 in 10.0 mi WNW 16.1 mph - N/A   Scattered Clouds
8:53 PM -0.9 °F -19.9 °F -11.0 °F 62% 30.13 in 10.0 mi WNW 13.8 mph 24.2 mph N/A   Partly Cloudy
9:53 PM -2.0 °F -23.3 °F -11.9 °F 63% 30.14 in 10.0 mi WNW 17.3 mph - N/A   Clear
10:53 PM -2.0 °F -25.0 °F -11.9 °F 63% 30.16 in 9.0 mi WNW 20.7 mph 27.6 mph N/A   Clear
11:53 PM -2.9 °F -25.6 °F -11.9 °F 65% 30.18 in 9.0 mi WNW 19.6 mph - N/A   Scattered Clouds